Regional Weather Roundup
Issued by NWS

Home | Current Version | Previous Version | Graphics & Text | Print | Product List | Glossary On
Versions: 1 2 3 4 5 6 7 8 9 10 11 12 13 14 15 16 17 18 19 20 21 22 23 24 25 26 27 28 29 30 31 32 33 34 35 36 37 38 39 40 41 42 43 44 45 46 47 48 49 50
000
ASUS45 KABQ 170010
RWRNM
WEATHER ROUNDUP FOR NEW MEXICO
NATIONAL WEATHER SERVICE ALBUQUERQUE NM
600 PM MDT WED APR 16 2014

NOTE: "FAIR" MEANS FEW OR NO CLOUDS BELOW 12,000 FEET AGL WITH NO
       SIGNIFICANT WEATHER OR OBSTRUCTIONS TO VISION.

      THIS PRODUCT IS RELEASED AS TWO VERSIONS.  ONE VERSION NEAR
      THE TOP OF THE HOUR CONTAINING PRELIMINARY DATA FROM ALBUQUERQUE
      AND OTHER STATIONS.  A FINAL VERSION WITH ADDITIONAL DATA IS
      ISSUED ABOUT 10 MINUTES AFTER THE HOUR.

NMZ501-503-504-510>518-170100-
NORTHWEST PLATEAU/NORTHCENTRAL MOUNTAINS

CITY           SKY/WX    TMP DP  RH WIND       PRES   REMARKS
FARMINGTON     PTSUNNY   59  21  23 NW18      29.89R
6HR MIN TEMP:  59; 6HR MAX TEMP:  66;

LOS ALAMOS     CLOUDY    58   8  13 W9G21     29.90R
SANTA FE       CLOUDY    65   3   8 W12       29.83R
6HR MIN TEMP:  61; 6HR MAX TEMP:  69;

TAOS           CLOUDY    57  12  17 W16       29.90R
ANGEL FIRE     CLOUDY    48  20  33 E17       29.96R

$$
NMZ402-403-502-505>509-170100-
WESTCENTRAL MOUNTAINS/SOUTHWEST MOUNTAINS

CITY           SKY/WX    TMP DP  RH WIND       PRES   REMARKS
GALLUP         CLOUDY    61  14  16 NW14G25   29.93R
6HR MIN TEMP:  60; 6HR MAX TEMP:  69;

GRANTS         CLOUDY    61  11  13 NW15G24   29.93R
SILVER CITY    SUNNY     73   0   5 W17G30    29.86S

$$
NMZ407-409-411-412-170100-
SOUTHERN DESERTS

CITY           SKY/WX    TMP DP  RH WIND       PRES   REMARKS
LORDSBURG      FAIR      79   1   5 W16G26    29.79S
DEMING         SUNNY     79  -2   4 W17G29    29.77S
6HR MIN TEMP:  75; 6HR MAX TEMP:  81;

LAS CRUCES     SUNNY     79   0   4 W23G33    29.78F
HOLLOMAN AFB   MOSUNNY   80   1   4 S16       29.71F
ALAMOGORDO     MOSUNNY   81   5   5 S8        29.74F
T OR C         SUNNY     80  -5   3 NW17G25   29.71S
6HR MIN TEMP:  71; 6HR MAX TEMP:  82;


$$
NMZ519>523-170100-
CENTRAL VALLEYS/CENTRAL HIGHLANDS

CITY           SKY/WX    TMP DP  RH WIND       PRES   REMARKS
ALBUQUERQUE    CLOUDY    71   7   8 NW14G24   29.80R
6HR MIN TEMP:  64; 6HR MAX TEMP:  73;

DOUBLE EAGLE   CLOUDY    68  10  10 SW16G28   29.83R
MORIARTY ARPT  FAIR      66  10  11 NW12      29.85R
6HR MIN TEMP:  65; 6HR MAX TEMP:  71;

CLINES CORNERS CLOUDY    61   5  10 NW15      29.86S
6HR MIN TEMP:  61; 6HR MAX TEMP:  67;

BELEN          FAIR      72  12  10 NW20G29   29.79R
6HR MIN TEMP:  69; 6HR MAX TEMP:  78;

SOCORRO        FAIR      76   8   7 E8        29.74S
6HR MIN TEMP:  70; 6HR MAX TEMP:  79;


$$
NMZ524>526-539-540-170100-
SOUTHCENTRAL MOUNTAINS

CITY           SKY/WX    TMP DP  RH WIND       PRES   REMARKS
RUIDOSO        SUNNY     66   1   7 W7        29.91R

$$
NMZ527>531-170100-
NORTHEAST HIGHLANDS/NORTHEAST PLAINS

CITY           SKY/WX    TMP DP  RH WIND       PRES   REMARKS
LAS VEGAS      CLOUDY    60   7  12 SW12      29.86R
6HR MIN TEMP:  60; 6HR MAX TEMP:  67;

RATON          LGT RAIN  50  31  48 NE12G26   29.94R
6HR MIN TEMP:  50; 6HR MAX TEMP:  67; 6HR PCP: TRACE;

CLAYTON        PTSUNNY   57  23  26 E18       29.91R
6HR MIN TEMP:  57; 6HR MAX TEMP:  63;


$$
NMZ532>537-170100-
EASTCENTRAL PLAINS

CITY           SKY/WX    TMP DP  RH WIND       PRES   REMARKS
TUCUMCARI      CLOUDY    70  20  15 NE28G37   29.75R
6HR MIN TEMP:  70; 6HR MAX TEMP:  81;

CANNON AFB     PTSUNNY   76   5   6 SW7       29.73S
6HR MIN TEMP:  74; 6HR MAX TEMP:  80;

CLOVIS AIRPORT MOSUNNY   75  18  11 SW9       29.76S

$$
NMZ028-029-538-170100-
SOUTHEAST PLAINS

CITY           SKY/WX    TMP DP  RH WIND       PRES   REMARKS
ROSWELL        SUNNY     83  10   6 SE14      29.68F
6HR MIN TEMP:  75; 6HR MAX TEMP:  84;

ARTESIA        SUNNY     82   3   5 SW21G31   29.67S
CARLSBAD       SUNNY     86   3   4 S13       29.67F
6HR MIN TEMP:  74; 6HR MAX TEMP:  87;

HOBBS          SUNNY     81  16   9 SE15      29.73F


$$



USA.gov is the U.S. government's official web portal to all federal, state and local government web resources and services.